Погода в Медиаше

Румыния     46°09′45″N   24°21′20″E
темп.,
°C
ветер,
м/с
пор.,
м/с
влажн.,
%
обл.,
%
осадки,
мм/ч
давл.,
гПа
погр.,
м
20 апреля, вт
вт2000:00+5ссз2289100 0.0 101311
03:00+4зсз1193100 0.0 101210
06:00+5зсз1388100 0.1 1012123
09:00+7сз247796 0.1 1013457
12:00+9ссз3370100 0.2 10121008
15:00+12зюз126195 0.8 10121337
18:00+11ссз447065 1.1 1012722
21:00+7зсз118390 2.0 101310
21 апреля, ср
ср2100:00+7ююз1185100 0.3 101420
03:00+7ююз228998 0.3 101531
06:00+4ююз229258 0.0 101524
09:00+7зюз248368 0.0 1017348
12:00+12зюз336524 0.3 10161108
15:00+13зюз345995 2.0 10151265
18:00+13зюз4562100 1.3 10151088
21:00+8зюз228284 2.1 101724
22 апреля, чт
чт2200:00+6ююз11865 0.1 101810
03:00+5ююз22902 0.1 101911
06:00+4ю11895 0.0 101910
09:00+9ю227324 0.0 1019235
12:00+15юз34545 0.0 10181227
15:00+17зюз5742100 0.1 10162240
18:00+16з475273 0.0 10161650
21:00+10юз327480 0.1 101731
23 апреля, пт
пт2300:00+8ююз22840 0.0 101720
03:00+6ююз22855 0.0 101711
06:00+6ю1186100 0.6 101824
09:00+8зсз4888100 0.9 1019636
12:00+6с3583100 0.3 1022542
15:00+10с336452 0.3 1021975
18:00+10с556820 0.5 1021583
21:00+5ююз117626 0.7 102210
24 апреля, сб
сб2400:00+3юз22795 0.0 102414
03:00+2юз228032 0.0 102424
06:00+1зюз11815 0.0 102410
09:00+6с11625 0.0 1025355
12:00+10сз124873 0.0 10241703
15:00+13з12436 0.0 10221653
18:00+13зсз124520 0.0 10211582
21:00+8ссв226674 0.0 102215